Date String (YYYY-MM-DD hh:mm:ss) UTC,Instrument flags,Ambient pressure (hPa),Sample flow (lpm),Bypass flow (lpm),Sample temperature (°C),Ambient temperature (°C),ASC tube jacket temperature (°C),LED temperature (°C),Box temperature (°C),Sample RH (%),Span deviation,Mass concentration (μg/m³),Mass concentration (μg/m³),Mass concentration (μg/m³)
DateTimeUTC,F1_M11,P_M11,Q1_M11,Q2_M11,T1_M11,T2_M11,T3_M11,T4_M11,T5_M11,U1_M11,ZSPAN_M11,X0_M11,X2_M11,X1_M11
2021-11-19 15:00:00,,0824.9,4.99,0.00,22.8,21.9,00.0,31.8,24.6,10.7,0000.0,0009.87,0004.99,0004.64
2021-11-19 15:01:00,,0824.9,5.00,0.00,22.8,21.9,00.0,31.8,24.6,10.7,0000.0,0009.31,0004.99,0004.64
2021-11-19 15:02:00,,0824.8,5.00,0.00,22.8,21.9,00.0,31.8,24.6,10.7,0000.0,0009.08,0004.95,0004.63
2021-11-19 15:03:00,,0824.7,5.00,0.00,22.8,21.9,00.0,31.8,24.6,10.6,0000.0,0010.32,0004.95,0004.64
2021-11-19 15:04:00,,0824.8,4.99,0.00,22.7,21.8,00.0,31.8,24.6,10.6,0000.0,0010.49,0004.98,0004.66
2021-11-19 15:05:00,,0825.0,4.99,0.00,22.7,21.8,00.0,31.8,24.6,10.6,0000.0,0011.05,0005.00,0004.67
2021-11-19 15:06:00,,0824.9,5.01,0.00,22.7,21.8,00.0,31.8,24.6,10.6,0000.0,0011.10,0005.02,0004.69
2021-11-19 15:07:00,,0825.1,5.00,0.00,22.7,21.8,00.0,31.8,24.5,10.6,0000.0,0010.70,0005.00,0004.70
2021-11-19 15:08:00,,0825.2,5.01,0.00,22.7,21.9,00.0,31.8,24.5,10.6,0000.0,0009.72,0005.03,0004.70
2021-11-19 15:09:00,,0825.0,5.00,0.00,22.7,21.9,00.0,31.8,24.5,10.6,0000.0,0009.87,0005.07,0004.72
2021-11-19 15:10:00,,0824.9,5.00,0.00,22.7,21.9,00.0,31.8,24.5,10.6,0000.0,0010.17,0005.10,0004.73
2021-11-19 15:11:00,,0824.9,5.00,0.00,22.7,21.9,00.0,31.8,24.6,10.5,0000.0,0010.48,0005.12,0004.72
2021-11-19 15:12:00,,0825.0,4.99,0.00,22.7,21.8,00.0,31.8,24.6,10.5,0000.0,0010.69,0005.14,0004.72
2021-11-19 15:13:00,,0825.0,5.00,0.00,22.7,21.8,00.0,31.8,24.5,10.5,0000.0,0010.77,0005.17,0004.72
2021-11-19 15:14:00,,0825.1,5.00,0.00,22.7,21.9,00.0,31.8,24.5,10.5,0000.0,0009.88,0005.13,0004.69
2021-11-19 15:15:00,,0824.9,4.97,0.00,22.7,21.9,00.0,31.8,24.5,10.5,0000.0,0009.22,0005.08,0004.66
2021-11-19 15:16:00,,0824.9,5.00,0.00,22.7,21.8,00.0,31.8,24.5,10.5,0000.0,0008.96,0005.06,0004.63
2021-11-19 15:17:00,,0824.8,5.01,0.00,22.7,21.8,00.0,31.8,24.5,10.5,0000.0,0009.08,0005.06,0004.60
2021-11-19 15:18:00,,0825.2,5.01,0.00,22.7,21.8,00.0,31.8,24.5,10.4,0000.0,0010.09,0005.07,0004.57
2021-11-19 15:19:00,,0825.3,4.98,0.00,22.7,21.8,00.0,31.7,24.5,10.1,0000.0,0010.25,0005.10,0004.54
2021-11-19 15:20:00,,0825.2,5.01,0.00,22.7,21.9,00.0,31.7,24.4,10.3,0000.0,0010.30,0005.03,0004.48
2021-11-19 15:21:00,,0825.2,5.00,0.00,22.7,21.9,00.0,31.7,24.4,10.3,0000.0,0010.79,0004.98,0004.43
2021-11-19 15:22:00,,0825.2,5.01,0.00,22.7,21.9,00.0,31.7,24.4,10.3,0000.0,0011.07,0004.95,0004.39
2021-11-19 15:23:00,,0825.4,4.99,0.00,22.7,21.9,00.0,31.7,24.4,10.1,0000.0,0011.01,0004.90,0004.36
2021-11-19 15:24:00,,0825.5,5.00,0.00,22.7,21.9,00.0,31.7,24.4,09.6,0000.0,0010.91,0004.83,0004.29
2021-11-19 15:25:00,,0825.4,5.01,0.00,22.7,21.9,00.0,31.7,24.4,09.4,0000.0,0010.84,0004.76,0004.21
2021-11-19 15:26:00,,0825.2,5.01,0.00,22.7,21.9,00.0,31.7,24.4,09.8,0000.0,0010.80,0004.69,0004.14
2021-11-19 15:27:00,,0825.2,4.99,0.00,22.6,21.9,00.0,31.7,24.4,10.1,0000.0,0010.75,0004.67,0004.12
2021-11-19 15:28:00,,0825.2,5.00,0.00,22.6,21.9,00.0,31.7,24.4,09.9,0000.0,0010.93,0004.59,0004.08
2021-11-19 15:29:00,,0825.2,4.99,0.00,22.6,21.9,00.0,31.7,24.4,10.2,0000.0,0010.15,0004.55,0004.06
2021-11-19 15:30:00,,0825.3,5.00,0.00,22.6,21.8,00.0,31.7,24.3,09.9,0000.0,0009.94,0004.46,0004.03
2021-11-19 15:31:00,,0825.2,5.01,0.00,22.6,21.9,00.0,31.7,24.3,09.7,0000.0,0009.89,0004.39,0003.97
2021-11-19 15:32:00,,0825.1,5.00,0.00,22.6,21.9,00.0,31.7,24.3,10.1,0000.0,0009.39,0004.35,0003.92
2021-11-19 15:33:00,,0825.1,5.00,0.00,22.6,21.9,00.0,31.7,24.3,10.2,0000.0,0008.87,0004.32,0003.90
2021-11-19 15:34:00,,0825.2,4.99,0.00,22.7,21.9,00.0,31.7,24.4,10.2,0000.0,0008.43,0004.30,0003.87
2021-11-19 15:35:00,,0825.2,5.01,0.00,22.7,21.9,00.0,31.7,24.4,10.2,0000.0,0008.46,0004.31,0003.89
2021-11-19 15:36:00,,0825.2,4.99,0.00,22.7,22.0,00.0,31.7,24.4,10.2,0000.0,0009.48,0004.33,0003.92
2021-11-19 15:37:00,,0825.1,5.01,0.00,22.7,22.0,00.0,31.7,24.4,10.2,0000.0,0009.79,0004.37,0003.98
2021-11-19 15:38:00,,0825.2,4.99,0.00,22.7,22.0,00.0,31.7,24.5,10.2,0000.0,0009.84,0004.36,0003.97
2021-11-19 15:39:00,,0825.3,5.01,0.00,22.7,22.1,00.0,31.7,24.5,09.8,0000.0,0009.35,0004.36,0003.97
2021-11-19 15:40:00,,0825.3,5.00,0.00,22.7,22.1,00.0,31.7,24.5,09.4,0000.0,0008.99,0004.30,0003.91
2021-11-19 15:41:00,,0825.2,4.98,0.00,22.7,22.1,00.0,31.7,24.5,09.6,0000.0,0009.06,0004.28,0003.87
2021-11-19 15:42:00,,0825.0,5.00,0.00,22.7,22.1,00.0,31.7,24.5,09.9,0000.0,0008.93,0004.29,0003.88
2021-11-19 15:43:00,,0825.2,5.02,0.00,22.7,22.1,00.0,31.7,24.4,09.8,0000.0,0008.67,0004.29,0003.89
2021-11-19 15:44:00,,0825.2,4.99,0.00,22.7,22.1,00.0,31.7,24.5,09.4,0000.0,0008.72,0004.23,0003.81
2021-11-19 15:45:00,,0825.1,4.99,0.00,22.7,22.1,00.0,31.7,24.5,09.5,0000.0,0008.87,0004.21,0003.73
2021-11-19 15:46:00,,0825.1,5.01,0.00,22.7,22.1,00.0,31.7,24.5,09.6,0000.0,0008.86,0004.10,0003.62
2021-11-19 15:47:00,,0825.1,4.99,0.00,22.8,22.1,00.0,31.7,24.6,09.6,0000.0,0008.59,0004.03,0003.52
2021-11-19 15:48:00,,0825.2,5.00,0.00,22.8,22.2,00.0,31.7,24.6,09.6,0000.0,0008.44,0003.94,0003.41
2021-11-19 15:49:00,,0825.0,5.00,0.00,22.8,22.2,00.0,31.8,24.6,09.6,0000.0,0008.40,0003.86,0003.32
2021-11-19 15:50:00,,0825.1,5.00,0.00,22.8,22.2,00.0,31.8,24.6,09.9,0000.0,0008.47,0003.84,0003.29
2021-11-19 15:51:00,,0825.1,5.00,0.00,22.8,22.2,00.0,31.8,24.6,09.7,0000.0,0008.66,0003.88,0003.30
2021-11-19 15:52:00,,0825.0,5.01,0.00,22.8,22.2,00.0,31.8,24.6,09.4,0000.0,0008.76,0003.85,0003.24
2021-11-19 15:53:00,,0824.8,4.99,0.00,22.8,22.2,00.0,31.8,24.6,09.7,0000.0,0008.75,0003.79,0003.20
2021-11-19 15:54:00,,0824.6,5.02,0.00,22.8,22.2,00.0,31.8,24.6,09.5,0000.0,0008.89,0003.75,0003.17
2021-11-19 15:55:00,,0825.0,5.00,0.00,22.8,22.2,00.0,31.8,24.7,09.4,0000.0,0008.95,0003.73,0003.15
2021-11-19 15:56:00,,0825.2,5.01,0.00,22.8,22.2,00.0,31.8,24.7,09.4,0000.0,0008.75,0003.66,0003.14
2021-11-19 15:57:00,,0825.3,4.99,0.00,22.8,22.2,00.0,31.8,24.6,09.4,0000.0,0009.12,0003.63,0003.15
2021-11-19 15:58:00,,0825.0,5.00,0.00,22.8,22.2,00.0,31.8,24.6,09.3,0000.0,0008.63,0003.61,0003.14
2021-11-19 15:59:00,,0825.2,5.01,0.00,22.8,22.2,00.0,31.8,24.6,09.3,0000.0,0008.59,0003.64,0003.15
